Location: Agadir Mansour Mhndou
(31.2424°N, 8.7730°W)
Time: 18:55:01
(UTC+00:00)

SL-08 RB Rocket - Pass Details

Date: 16 October 2021
Orbit: 646 x 684 km, 97.8° (Epoch: 08 December)

Event Time Altitude Azimuth Distance (km) Brightness Sun altitude
Rises 18:50:42 0° 146° (SSE) 2,955 6.7 -11.2°
Reaches altitude 10° 18:53:03 10° 137° (SE) 2,053 5.9 -11.7°
Maximum altitude 18:57:05 34° 73° (ENE) 1,079 4.3 -12.5°
Drops below altitude 10° 19:01:11 10° 9° (N) 2,083 6.1 -13.4°
Sets 19:03:34 0° 360° (N) 3,006 7.1 -13.9°
